Weather History for Greensboro, NC

Change the Weather History Date:

Sunday, April 13, 2014

  Actual Average Record
Temperature  
Mean Temperature 69 °F 58 °F  
Max Temperature 80 °F 70 °F 88 °F (1930)
Min Temperature 57 °F 47 °F 25 °F (1940)
Degree Days  
Heating Degree Days 0 8  
Month to date heating degree days 57 121  
Since 1 July heating degree days 3661 3446  
Cooling Degree Days 4 1  
Month to date cooling degree days 12 12  
Year to date cooling degree days 12 17  
Growing Degree Days 18 (Base 50)    
Moisture  
Dew Point 52 °F    
Average Humidity 58    
Maximum Humidity 77    
Minimum Humidity 39    
Precipitation  
Precipitation 0.00 in 0.12 in 1.22 in (1926)
Month to date precipitation 1.73 1.58  
Year to date precipitation 12.31 11.33  
Snow  
Snow 0.00 in 0.00 in T in (1959)
Month to date snowfall 0.0 0.1  
Since 1 July snowfall 15.3 7.6  
Snow Depth 0.00 in    
Sea Level Pressure  
Sea Level Pressure 30.11 in    
Wind  
Wind Speed 11 mph (SSW)    
Max Wind Speed 21 mph    
Max Gust Speed 25 mph    
Visibility 10 miles    
Events      
T = Trace of Precipitation, MM = Missing Value Source: NWS Daily Summary

Daily Weather History Graph

Daily Weather History Graph

Search for Another Location

Airport:

Trip Planner

Search our weather history database for the weather conditions in past years. The results will help you decide how hot, cold, wet, or windy it might be!

Date:

Astronomy

Apr. 13, 2014 Rise Set
Actual Time 6:49 AM EDT 7:51 PM EDT
Civil Twilight 6:22 AM EDT 8:18 PM EDT
Nautical Twilight 5:51 AM EDT 8:49 PM EDT
Astronomical Twilight 5:19 AM EDT 9:22 PM EDT
Moon 6:30 PM EDT (4/13) 5:44 AM EDT (4/13)
Length of Visible Light 13h 55m
Length of Day
13h 02m
Waxing Gibbous, 97% of the Moon is Illuminated
Apr 13
Waxing Gibbous
Apr 15
Full
Apr 22
Last Quarter
Apr 29
New
May 6
First Quarter

Hourly Weather History & Observations

Time (EDT) Temp. Dew Point Humidity Pressure Visibility Wind Dir Wind Speed Gust Speed Precip Events Conditions
12:54 AM 64.9 °F 46.9 °F 52% 30.12 in 10.0 mi South 9.2 mph - N/A   Partly Cloudy
1:54 AM 63.0 °F 50.0 °F 63% 30.12 in 10.0 mi South 11.5 mph - N/A   Partly Cloudy
2:54 AM 61.0 °F 50.0 °F 67% 30.11 in 10.0 mi South 9.2 mph - N/A   Partly Cloudy
3:54 AM 61.0 °F 50.0 °F 67% 30.10 in 10.0 mi South 9.2 mph - N/A   Clear
4:54 AM 59.0 °F 50.0 °F 72% 30.11 in 10.0 mi SSW 6.9 mph - N/A   Clear
5:54 AM 57.9 °F 50.0 °F 75% 30.12 in 10.0 mi SSW 5.8 mph - N/A   Clear
6:54 AM 57.0 °F 50.0 °F 77% 30.14 in 10.0 mi SSW 6.9 mph - N/A   Scattered Clouds
7:54 AM 60.1 °F 51.1 °F 72% 30.17 in 10.0 mi SSW 8.1 mph - N/A   Mostly Cloudy
8:54 AM 64.0 °F 51.1 °F 63% 30.17 in 10.0 mi SW 10.4 mph - N/A   Mostly Cloudy
9:54 AM 69.1 °F 51.1 °F 53% 30.16 in 10.0 mi SW 12.7 mph - N/A   Scattered Clouds
10:54 AM 73.0 °F 52.0 °F 48% 30.17 in 10.0 mi SSW 9.2 mph - N/A   Mostly Cloudy
11:54 AM 75.0 °F 52.0 °F 44% 30.16 in 10.0 mi SW 12.7 mph 19.6 mph N/A   Overcast
12:54 PM 75.9 °F 53.1 °F 45% 30.14 in 10.0 mi SSW 11.5 mph - N/A   Overcast
1:54 PM 79.0 °F 53.1 °F 40% 30.12 in 10.0 mi SSW 12.7 mph 24.2 mph N/A   Mostly Cloudy
2:54 PM 79.0 °F 53.1 °F 40% 30.09 in 10.0 mi SSW 12.7 mph 19.6 mph N/A   Overcast
3:54 PM 79.0 °F 52.0 °F 39% 30.07 in 10.0 mi SW 17.3 mph 24.2 mph N/A   Mostly Cloudy
4:54 PM 79.0 °F 52.0 °F 39% 30.06 in 10.0 mi SSW 17.3 mph 24.2 mph N/A   Scattered Clouds
5:54 PM 78.1 °F 52.0 °F 40% 30.05 in 10.0 mi SSW 17.3 mph - N/A   Scattered Clouds
6:54 PM 75.9 °F 52.0 °F 43% 30.05 in 10.0 mi SSW 13.8 mph - N/A   Mostly Cloudy
7:54 PM 73.9 °F 53.1 °F 48% 30.05 in 10.0 mi SSW 8.1 mph - N/A   Scattered Clouds
8:54 PM 72.0 °F 53.1 °F 51% 30.05 in 10.0 mi South 9.2 mph - N/A   Clear
9:54 PM 70.0 °F 53.1 °F 55% 30.06 in 10.0 mi South 10.4 mph - N/A   Clear
10:54 PM 69.1 °F 53.1 °F 57% 30.06 in 10.0 mi South 12.7 mph - N/A   Clear
11:54 PM 68.0 °F 52.0 °F 56% 30.06 in 10.0 mi South 13.8 mph 21.9 mph N/A   Clear